Regional Weather Roundup
Issued by NWS Wakefield, VA

Home | Current Version | Previous Version | Graphics & Text | Print | Product List | Glossary On
Versions: 1 2 3 4 5 6 7 8 9 10 11 12 13 14 15 16 17 18 19 20 21 22 23 24 25 26 27 28 29 30 31 32 33 34 35 36 37 38 39 40 41 42 43 44 45 46 47 48 49 50
000
ASUS41 KAKQ 290010
RWRAKQ

REGIONAL WEATHER ROUNDUP
NATIONAL WEATHER SERVICE WAKEFIELD VA
700 PM EST SUN DEC 28 2014

Note: "fair" indicates few or no clouds below 12,000 feet with no
significant weather and/or obstructions to visibility. * = Denotes
station may not report precipitation (e.g., rain,snow,etc.),
thunder or fog.

VAZ042-051-052>054-056-290100-
NORTHERN VIRGINIA

CITY           SKY/WX    TMP DP  RH WIND       PRES   REMARKS
WASH NATIONAL  CLOUDY    53  45  74 W3        30.04R
DULLES         CLOUDY    50  45  83 N7        30.03R
FORT BELVOIR   CLOUDY    48  47  95 W3        30.03R
QUANTICO       CLOUDY    48  45  89 NW6       30.04R
FREDERICKSBRG* CLOUDY    50  50 100 CALM      30.02R
STAFFORD*      FOG       48  50 100 CALM      30.06R VSB 3/4
WARRENTON      CLOUDY    48  48 100 CALM      30.02R FOG
CULPEPER*      CLOUDY    48  46  93 CALM      30.03R
MANASSAS*      NOT AVBL
LEESBURG*      CLOUDY    50  46  87 NE3       30.04R
WINCHESTER     CLOUDY    50  36  57 N3        30.03R
FRONT ROYAL*   CLOUDY    46  45  93 NE3       30.02R
LURAY*         CLOUDY    50  48  93 NE3       30.01S
$$

VAZ048-049-060>072-079>083-290100-
CENTRAL AND SOUTH CENTRAL VIRGINIA

CITY           SKY/WX    TMP DP  RH WIND       PRES   REMARKS
RICHMOND       CLOUDY    53  51  93 SE3       30.00F
CHESTERFIELD*  CLOUDY    54  43  66 CALM      30.02F
PETERSBURG*    CLOUDY    54  53  96 CALM      30.01F FOG
HANOVER        CLOUDY    52  51  97 CALM      30.02S
TAPPAHANNOCK*  CLOUDY    52  45  77 CALM      30.01F
QUINTON*       CLOUDY    52  52  99 E5        30.00F
CHARLOTTSVILLE CLOUDY    48  45  89 N3        30.01R
GORDONSVILLE*  CLOUDY    47  46  99 CALM      30.02R FOG
ORANGE*        CLOUDY    46  46 100 CALM      30.03R
LOUISA*        CLOUDY    50  48  93 CALM      30.00R FOG
BUMPASS*       CLOUDY    49  49  98 CALM      30.01R
FARMVILLE*     CLOUDY    56  49  75 SW3       30.01R
CREWE*         CLOUDY    55  50  83 CALM      30.00S
FORT PICKETT*  CLOUDY    52  51  98 SW5       30.02R
CHASE CITY*    CLOUDY    55  55  99 CALM      30.03R
CLARKSVILLE*   CLOUDY    55  54  94 CALM      30.02R
SOUTH HILL*    CLOUDY    57  55  92 SW5       30.07S
LAWRENCEVILLE* CLOUDY    58  56  93 S3        30.01S
EMPORIA*       CLOUDY    57  55  94 S3        30.04R
$$

VAZ088>098-290100-
SOUTHEAST VIRGINIA

CITY           SKY/WX    TMP DP  RH WIND       PRES   REMARKS
NORFOLK        CLOUDY    60  54  80 CALM      30.02S
VIRGINIA BEACH CLOUDY    61  57  87 SW7       30.03S
NORFOLK NAVAL  CLOUDY    62  54  74 CALM      30.03F
WEST POINT*    CLOUDY    56  53  91 CALM      30.02F
SALUDA*        CLOUDY    49  46  90 CALM      30.01F
NEWPORT NEWS   CLOUDY    61  54  77 CALM      30.01F
LANGLEY AFB    CLOUDY    59  55  84 NE2       30.01F
FORT EUSTIS    CLOUDY    57  57 100 N1        30.00F
WILLIAMSBURG*  CLOUDY    59  55  88 CALM      30.02F
HR EXEC AP*    CLOUDY    59  55  88 S5        30.04F
FRANKLIN*      CLOUDY    59  57  94 S6        30.01F
WAKEFIELD      CLOUDY    57  54  89 CALM      30.02R
$$

VAZ020-022-025-037-045-290100-
WEST CENTRAL AND SOUTHWEST VIRGINIA

CITY           SKY/WX    TMP DP  RH WIND       PRES   REMARKS
STAUNTON*      CLOUDY    50  47  89 CALM      30.01S
WAYNESBORO*    CLOUDY    50  45  82 SW6       29.99F
HOT SPRINGS VA CLOUDY    42  42 100 W12       29.98R
LYNCHBURG      MOCLDY    52  47  83 SW3       30.03R
DANVILLE       MOCLDY    56  50  80 SW3       30.04R
SOUTH BOSTON*  CLOUDY    56  51  84 CALM      30.03R
MARTINSVILLE   PTCLDY    49  48  95 CALM      30.07R
ROANOKE        PTCLDY    51  45  79 W9        30.04F
BLACKSBURG     MOCLDY    45  44  95 CALM      30.07R
DUBLIN*        CLOUDY    49  49 100 SW5       30.07R
MARION*        FOG       47  46  96 W8        30.09R VSB 3/4
HILLSVILLE*    MOCLDY    46  45  95 NW9       30.05R
RICHLANDS*     FOG       45  44  95 W5        30.07R VSB<1/4
WISE*          LGT RAIN  45  45 100 CALM      30.10R VSB 3/4
ABINGDON*      CLOUDY    48  48 100 W3        30.09R FOG
$$

MDZ021>025-VAZ099-100-290100-
SOUTHERN MARYLAND AND THE DELMARVA PENINSULA

CITY           SKY/WX    TMP DP  RH WIND       PRES   REMARKS
PATUXENT RIVER CLOUDY    49  46  90 E3        30.01F
BAY BRIDGE APT   N/A     46  45  93 SE5       30.01F
LEONARDTOWN    CLOUDY    50  46  87 CALM      30.02S
DOVER          LGT RAIN  48  48 100 SW5       29.99F
GEORGETOWN     CLOUDY    50  47  89 CALM      30.02F
EASTON         CLOUDY    50  50 100 CALM      30.04F
CAMBRIDGE      CLOUDY    52  48  87 CALM      30.01S
SALISBURY      CLOUDY    52  48  86 CALM      30.03F
OCEAN CITY     CLOUDY    52  45  77 N3        30.03F
WALLOPS ISLAND CLOUDY    54  45  71 N3        30.03F
ACCOMACK*      CLOUDY    52  45  76 CALM      30.02S
$$

NCZ012>017-030>032-290100-
NORTH CENTRAL AND EASTERN NORTH CAROLINA

CITY           SKY/WX    TMP DP  RH WIND       PRES   REMARKS
ROANOKE RAPIDS CLOUDY    55  55 100 S7        30.03S
RALEIGH        CLOUDY    57  54  89 CALM      30.05R
ELIZABETH CITY LGT RAIN  64  57  77 W10       30.05R
AHOSKIE*       CLOUDY    57  56  97 S5        30.04F
EDENTON*       CLOUDY    59  57  95 W5        30.05S
CURRITUCK*     DRIZZLE   60  58  91 SW6       30.05R
KILL DEVIL HLS CLOUDY    61  57  88 W6        30.04R
MANTEO         CLOUDY    59  55  88 CALM      30.05S
CAPE HATTERAS  MOCLDY    58  56  93 SW3       30.05S
TARBORO*       CLOUDY    57  56  96 CALM      30.06S
GOLDSBORO      LGT RAIN  60  60 100 CALM      30.04S VSB 1
WASHINGTON     DRIZZLE   60  58  94 NW3       30.06R
GREENVILLE     DRIZZLE   59  59 100 CALM      30.08R
NEW BERN       CLOUDY    65  57  75 N3        30.06R
WILMINGTON     MOCLDY    66  62  87 SW7       30.05R
$$

VAZ048-290100-
ELSEWHERE

CITY           SKY/WX    TMP DP  RH WIND       PRES   REMARKS
HARRISBURG PA  CLOUDY    45  35  68 NW12      30.02R
BALTIMORE      CLOUDY    50  47  89 NW3       30.01S
ANNAPOLIS      CLOUDY    46  44  93 CALM      30.00F
ANDREWS AFB    CLOUDY    48  47  97 W5        30.02R
PHILADELPHIA   LGT RAIN  53  42  66 NW6       30.01S
HENDERSON NC   MOCLDY    56  54  94 S5        30.03R
GREENSBORO     MOCLDY    54  53  97 CALM      30.03R
ROCKY MOUNT    CLOUDY    59  57  93 S5        30.05R
$$

VAZ100-290100-
MARINE

STATION/POSITION TIME  TEMP    WIND        PRES    WAVE   SWELL
                       AIR SEA DIR/SP/G            HT/PER HT/PER
                 (UTC) (F)     (DEG/KT/KT) (MB)    (FT/S) (FT/S)
CAPE MAY NJ      0000   47 46  220/  5/  6 1016.2F
LEWES DE         0000   50 44  190/  3/  4 1016.1F
15NM E FENWICK I 0000   49 46              1017.1R   2/13
OCEAN-CITY-INLET 0000   53 45   30/  4/  5 1016.4F
WACHAPREAGUE VA  0000   53 49     CALM     1016.4F
THOMAS POINT MD  0000   47 43  180/  6/  6 1017.1F
GOOSES REEF MD   0000   46     VRB  2/  4  1015.1S
COVE POINT MD    0000   49     160/  1/  2 1016.0R
SOLOMONS ISLAND  0000      44                N/A
BISHOPS HEAD MD  0000   49 46  110/  5/  5 1015.6F
PINEY POINT MD   0000          160/  7/  8   N/A
POTOMAC MD       0000   47     130/  2/  4 1015.6F
CAMBRIDGE MD     0000   48 43  100/  3/  5 1015.8F
LEWISETTA VA     0000   50 45     CALM     1016.1R
RAPPAHANNOCK LGT 0000           80/  3/  4 1017.1R
STINGRAY PT      0000   47      CALM  /  2 1017.3S
YORK RVR RNG VA  0000   57     310/  5/  6 1015.9F
YORKTOWN VA      0000   55 46  310/  3/  3 1016.3R
JAMESTOWN VA     0000   55      50/  2/  4   N/A
DOMINION TERM VA 0000   60     320/  1/  4 1016.4F
KIPTOPEKE VA     0000      51  350/  3/  5   N/A
CHES BAY BRIDGE  0000   60 47  270/ 10/ 11 1016.0F
CAPE HENRY VA    0000   57     260/  5/  6 1015.4F
CHESAPEAKE LGHT  2300   58     310/ 11/ 14 1017.4R
WILLOUBY STN VA  0000   60     310/  6/  6 1017.0F
S CRANEY ISL VA  0000           70/  2/  2 1016.4F
CAPE HENRY BUOY  0000      47                N/A     2/13   2/13
1ST LANDING BUOY 0000   55     300/  6/  6 1016.3F
CAPE CHARLES BUO 0000      49                N/A     2/13   2/13
64NM E OF VA BCH 0000   56 53  250/ 10/ 12 1016.7R   3/ 6   3/ 6
DUCK PIER NC     0000   56 49  240/  6/  9 1016.6R
44100 DUCK FRF   0000      50                N/A     2/13   2/13
44056 DUCK FRF   0000      49                N/A     2/14   2/14
OREGON INLET NC  0000   54 53  180/  2/  3 1017.6S
HATTERAS NC      0000   59 56  250/  3/  3 1017.8S
DIAMOND SHLS NC  0000   70                 1017.5R   4/12
CAPE LOOKOUT NC  2300   64     220/ 10/ 13 1017.1R
$$



USA.gov is the U.S. government's official web portal to all federal, state and local government web resources and services.